When you browse on this site, cookies collect data to enhance your experience and personalize the content and advertising you see.
Visit our Privacy Policy to learn more. By continuing to use the site, you agree to this use of cookies and data.
  • In Hungary
  • List of Countries
  • For 7 days
  • Water Temperature
  • Weather Map
  • News
  • Weather Widgets
  • user-avatar
    Login

    Hourly Weather Kitzingen

    Today, 11 December, Wednesday

    Time Temperature Precipitation Wind Pressure Humidity
    00:00 0°C° 0 mm 3 mps 746 mmHg 82%
    01:00 -1°C° 0 mm 4 mps 746 mmHg 81%
    02:00 0°C° 0 mm 3 mps 745 mmHg 80%
    03:00 -1°C° 0 mm 3 mps 744 mmHg 79%
    04:00 -1°C° 0 mm 2 mps 743 mmHg 79%
    05:00 -1°C° 0 mm 2 mps 743 mmHg 77%
    06:00 -1°C° 0 mm 3 mps 742 mmHg 75%
    07:00 -1°C° 0 mm 3 mps 742 mmHg 72%
    08:00 0°C° 0 mm 3 mps 741 mmHg 70%
    09:00 +1°C° 0 mm 2 mps 741 mmHg 67%
    10:00 +2°C° 0 mm 2 mps 740 mmHg 64%
    11:00 +2°C° 0 mm 2 mps 740 mmHg 62%
    12:00 +3°C° 0 mm 2 mps 739 mmHg 60%
    13:00 +4°C° 0 mm 2 mps 739 mmHg 58%
    14:00 +3°C° 0 mm 2 mps 738 mmHg 61%
    15:00 +3°C° 0 mm 2 mps 737 mmHg 64%
    16:00 +3°C° 0 mm 2 mps 736 mmHg 67%
    17:00 +2°C° 0.3 mm 2 mps 736 mmHg 75%
    18:00 +2°C° 0.3 mm 2 mps 736 mmHg 83%
    19:00 +1°C° 0.3 mm 2 mps 736 mmHg 90%
    20:00 +2°C° 0.6 mm 2 mps 736 mmHg 92%
    21:00 +1°C° 0.6 mm 3 mps 736 mmHg 94%
    22:00 +1°C° 0.6 mm 3 mps 736 mmHg 95%
    23:00 +1°C° 0.3 mm 4 mps 735 mmHg 95%

    Tomorrow, 12 December, Thursday

    Time Temperature Precipitation Wind Pressure Humidity
    00:00 +1°C° 0.3 mm 4 mps 735 mmHg 95%
    01:00 +3°C° 0.3 mm 4 mps 735 mmHg 95%
    02:00 +1°C° 0 mm 4 mps 735 mmHg 95%
    03:00 +1°C° 0 mm 4 mps 734 mmHg 94%
    04:00 +2°C° 0 mm 3 mps 734 mmHg 94%
    05:00 +2°C° 0 mm 3 mps 734 mmHg 95%
    06:00 +1°C° 0 mm 3 mps 734 mmHg 95%
    07:00 +2°C° 0 mm 2 mps 734 mmHg 96%
    08:00 +2°C° 0.1 mm 3 mps 734 mmHg 96%
    09:00 +2°C° 0.1 mm 3 mps 734 mmHg 96%
    10:00 +2°C° 0.1 mm 3 mps 734 mmHg 96%
    11:00 +1°C° 0.1 mm 4 mps 734 mmHg 95%
    12:00 +1°C° 0.1 mm 4 mps 734 mmHg 94%
    13:00 +1°C° 0.1 mm 5 mps 734 mmHg 92%
    14:00 +1°C° 0.1 mm 4 mps 733 mmHg 90%
    15:00 +2°C° 0.1 mm 3 mps 733 mmHg 88%
    16:00 +1°C° 0.1 mm 3 mps 732 mmHg 87%
    17:00 +2°C° 0 mm 2 mps 732 mmHg 88%
    18:00 +1°C° 0 mm 2 mps 732 mmHg 90%
    19:00 +1°C° 0 mm 2 mps 731 mmHg 91%
    20:00 -1°C° 0 mm 2 mps 730 mmHg 91%
    21:00 -1°C° 0 mm 3 mps 729 mmHg 90%
    22:00 -1°C° 0 mm 3 mps 728 mmHg 90%
    23:00 -2°C° 0 mm 4 mps 727 mmHg 88%

    Day after tomorrow, 13 December, Friday

    Time Temperature Precipitation Wind Pressure Humidity
    00:00 -2°C° 0 mm 4 mps 726 mmHg 87%
    01:00 -2°C° 0 mm 5 mps 724 mmHg 85%
    02:00 -1°C° 0 mm 5 mps 723 mmHg 82%
    03:00 -2°C° 0 mm 6 mps 722 mmHg 79%
    04:00 -1°C° 0 mm 7 mps 721 mmHg 76%
    05:00 -1°C° 0.1 mm 7 mps 719 mmHg 77%
    06:00 -1°C° 0.1 mm 7 mps 718 mmHg 78%
    07:00 -1°C° 0.1 mm 7 mps 717 mmHg 79%
    08:00 -1°C° 1.3 mm 8 mps 717 mmHg 84%
    09:00 -1°C° 1.3 mm 8 mps 716 mmHg 90%
    10:00 0°C° 1.3 mm 9 mps 716 mmHg 95%
    11:00 0°C° 0.5 mm 8 mps 716 mmHg 95%
    12:00 0°C° 0.5 mm 8 mps 717 mmHg 95%
    13:00 +2°C° 0.5 mm 7 mps 717 mmHg 96%
    14:00 +2°C° 0.2 mm 7 mps 718 mmHg 94%
    15:00 +2°C° 0.2 mm 7 mps 719 mmHg 91%
    16:00 +1°C° 0.2 mm 6 mps 719 mmHg 89%
    17:00 +1°C° 0.1 mm 6 mps 720 mmHg 91%
    18:00 +1°C° 0.1 mm 6 mps 721 mmHg 93%
    19:00 +1°C° 0.1 mm 6 mps 722 mmHg 95%
    20:00 0°C° 0.3 mm 7 mps 723 mmHg 95%
    21:00 0°C° 0.3 mm 7 mps 724 mmHg 94%
    22:00 0°C° 0.3 mm 7 mps 724 mmHg 93%
    23:00 +2°C° 0.1 mm 7 mps 725 mmHg 92%

    14 December, Saturday

    Time Temperature Precipitation Wind Pressure Humidity
    00:00 +2°C° 0.1 mm 6 mps 726 mmHg 91%
    01:00 +2°C° 0.1 mm 6 mps 726 mmHg 90%
    02:00 +2°C° 0.1 mm 6 mps 726 mmHg 91%
    03:00 +2°C° 0.1 mm 6 mps 727 mmHg 92%
    04:00 +2°C° 0.1 mm 6 mps 727 mmHg 93%
    05:00 +2°C° 0.1 mm 7 mps 727 mmHg 93%
    06:00 +2°C° 0.1 mm 7 mps 727 mmHg 92%
    07:00 +1°C° 0.1 mm 8 mps 727 mmHg 92%
    08:00 +2°C° 0.3 mm 8 mps 727 mmHg 90%
    09:00 +2°C° 0.3 mm 8 mps 727 mmHg 88%
    10:00 +3°C° 0.3 mm 9 mps 727 mmHg 86%
    11:00 +5°C° 0.1 mm 8 mps 727 mmHg 84%
    12:00 +5°C° 0.1 mm 8 mps 728 mmHg 83%
    13:00 +6°C° 0.1 mm 8 mps 728 mmHg 81%
    14:00 +5°C° 0 mm 7 mps 729 mmHg 80%
    15:00 +5°C° 0 mm 7 mps 729 mmHg 78%
    16:00 +4°C° 0 mm 6 mps 730 mmHg 77%
    17:00 +5°C° 0 mm 5 mps 730 mmHg 80%
    18:00 +5°C° 0 mm 5 mps 731 mmHg 84%
    19:00 +3°C° 0 mm 5 mps 731 mmHg 87%
    20:00 +5°C° 0.4 mm 5 mps 731 mmHg 89%
    21:00 +6°C° 0.4 mm 5 mps 731 mmHg 90%
    22:00 +7°C° 0.4 mm 6 mps 731 mmHg 92%
    23:00 +7°C° 0.6 mm 6 mps 731 mmHg 90%

    15 December, Sunday

    Time Temperature Precipitation Wind Pressure Humidity
    00:00 +7°C° 0.6 mm 6 mps 732 mmHg 88%
    01:00 +7°C° 0.6 mm 5 mps 732 mmHg 87%
    02:00 +7°C° 0.3 mm 4 mps 732 mmHg 89%
    03:00 +7°C° 0.3 mm 3 mps 733 mmHg 90%
    04:00 +6°C° 0.3 mm 2 mps 733 mmHg 92%
    05:00 +7°C° 1 mm 3 mps 733 mmHg 93%
    06:00 +6°C° 1 mm 4 mps 732 mmHg 93%
    07:00 +6°C° 1 mm 5 mps 732 mmHg 94%
    08:00 +6°C° 0.9 mm 5 mps 732 mmHg 92%
    09:00 +7°C° 0.9 mm 5 mps 732 mmHg 91%
    10:00 +7°C° 0.9 mm 6 mps 732 mmHg 89%
    11:00 +6°C° 0.9 mm 7 mps 733 mmHg 86%
    12:00 +6°C° 0.9 mm 8 mps 734 mmHg 83%
    13:00 +7°C° 0.9 mm 9 mps 734 mmHg 80%
    14:00 +6°C° 0 mm 8 mps 735 mmHg 75%
    15:00 +5°C° 0 mm 7 mps 737 mmHg 70%
    16:00 +4°C° 0 mm 7 mps 738 mmHg 65%
    17:00 +3°C° 0 mm 6 mps 739 mmHg 68%
    18:00 +3°C° 0 mm 5 mps 740 mmHg 71%
    19:00 +3°C° 0 mm 4 mps 741 mmHg 74%
    20:00 +3°C° 0 mm 3 mps 741 mmHg 77%
    21:00 +2°C° 0 mm 3 mps 741 mmHg 80%
    22:00 +3°C° 0 mm 2 mps 741 mmHg 83%
    23:00 +3°C° 0 mm 2 mps 741 mmHg 84%

    16 December, Monday

    Time Temperature Precipitation Wind Pressure Humidity
    00:00 +3°C° 0 mm 2 mps 741 mmHg 85%
    01:00 +4°C° 0 mm 2 mps 741 mmHg 85%
    02:00 +3°C° 0 mm 3 mps 741 mmHg 87%
    03:00 +4°C° 0 mm 3 mps 740 mmHg 88%
    04:00 +4°C° 0 mm 3 mps 740 mmHg 89%
    05:00 +5°C° 0.2 mm 3 mps 740 mmHg 90%
    06:00 +5°C° 0.2 mm 4 mps 739 mmHg 91%
    07:00 +5°C° 0.2 mm 4 mps 739 mmHg 93%
    08:00 +5°C° 0.4 mm 3 mps 739 mmHg 93%
    09:00 +5°C° 0.4 mm 3 mps 739 mmHg 94%
    10:00 +6°C° 0.4 mm 2 mps 739 mmHg 94%
    11:00 +7°C° 0.2 mm 2 mps 738 mmHg 92%
    12:00 +7°C° 0.2 mm 2 mps 738 mmHg 89%
    13:00 +8°C° 0.2 mm 2 mps 738 mmHg 87%
    14:00 +8°C° 0.1 mm 2 mps 738 mmHg 87%
    15:00 +8°C° 0.1 mm 2 mps 737 mmHg 87%
    16:00 +8°C° 0.1 mm 2 mps 737 mmHg 87%
    17:00 +8°C° 0.1 mm 2 mps 737 mmHg 87%
    18:00 +7°C° 0.1 mm 2 mps 737 mmHg 87%
    19:00 +7°C° 0.1 mm 3 mps 736 mmHg 87%
    20:00 +7°C° 0 mm 3 mps 736 mmHg 85%
    21:00 +7°C° 0 mm 3 mps 736 mmHg 83%
    22:00 +5°C° 0 mm 3 mps 736 mmHg 82%
    23:00 +5°C° 0 mm 3 mps 736 mmHg 82%
    Show more